Southampton, United Kingdom

9:58 PM BST on September 19, 2017 (GMT +0100)
Southampton International

Weather History for EGHI - December, 2012

Change the Weather History Date:

Sunday, December 16, 2012

  Actual Average Record
Temperature  
Mean Temperature 46 °F -  
Max Temperature 50 °F 45 °F 57 °F (2015)
Min Temperature 41 °F 36 °F 23 °F (2003)
Degree Days  
Heating Degree Days 20    
Moisture  
Dew Point 42 °F    
Average Humidity 87    
Maximum Humidity 100    
Minimum Humidity 76    
Precipitation  
Precipitation 0.00 in - - ()
Sea Level Pressure  
Sea Level Pressure 29.53 in    
Wind  
Wind Speed 4 mph ()    
Max Wind Speed 10 mph    
Max Gust Speed -    
Visibility 5.9 miles    
Events Rain , Thunderstorm    
Averages and records for this station are not official NWS values.
T = Trace of Precipitation, MM = Missing Value Source: Averaged Metar Reports

Daily Weather History Graph

Daily Weather History Graph

Search for Another Location

Airport or City:

Trip Planner

Search our weather history database for the weather conditions in past years. The results will help you decide how hot, cold, wet, or windy it might be!

Date:

Astronomy

Dec. 16, 2012 Rise Set
Actual Time 8:02 AM GMT 3:59 PM GMT
Civil Twilight 7:23 AM GMT 4:39 PM GMT
Nautical Twilight 6:40 AM GMT 5:21 PM GMT
Astronomical Twilight 6:00 AM GMT 6:02 PM GMT
Moon 10:08 AM GMT (12/16) 8:18 PM GMT (12/16)
Length of Visible Light 9h 16m
Length of Day
7h 57m
Waxing Crescent, 14% of the Moon is Illuminated
Dec 16
Waxing Crescent
Dec 20
First Quarter
Dec 28
Full
Jan 5
Last Quarter
Jan 11
New

Hourly Weather History & Observations

Time (GMT) Temp. Windchill Dew Point Humidity Pressure Visibility Wind Dir Wind Speed Gust Speed Precip Events Conditions
6:50 AM 41.0 °F - 39.2 °F 93% 29.53 in 6.2 mi Variable 1.2 mph - N/A   Mostly Cloudy
7:20 AM 41.0 °F - 41.0 °F 100% 29.56 in 6.2 mi Calm Calm - N/A   Mostly Cloudy
7:50 AM 41.0 °F 39.0 °F 39.2 °F 93% 29.56 in 6.2 mi SW 3.5 mph - N/A   Mostly Cloudy
8:20 AM 41.0 °F 38.0 °F 39.2 °F 93% 29.56 in 6.2 mi SW 4.6 mph - N/A   Partly Cloudy
8:50 AM 41.0 °F 39.0 °F 39.2 °F 93% 29.56 in 6.2 mi SSW 3.5 mph - N/A   Partly Cloudy
9:20 AM 41.0 °F 38.0 °F 39.2 °F 93% 29.56 in 6.2 mi SSW 4.6 mph - N/A   Partly Cloudy
9:50 AM 44.6 °F 43.1 °F 41.0 °F 87% 29.59 in - SSW 3.5 mph - N/A   Clear
10:20 AM 46.4 °F 44.3 °F 41.0 °F 81% 29.59 in - SSW 4.6 mph - N/A   Clear
10:50 AM 46.4 °F 44.3 °F 42.8 °F 87% 29.59 in - SSW 4.6 mph - N/A   Clear
11:20 AM 48.2 °F - 42.8 °F 82% 29.59 in 6.2 mi SSW 5.8 mph - N/A   Partly Cloudy
11:50 AM 48.2 °F - 44.6 °F 87% 29.56 in 6.2 mi SSW 9.2 mph - N/A   Partly Cloudy
12:20 PM 50.0 °F - 42.8 °F 76% 29.56 in 6.2 mi SSW 10.4 mph - N/A   Partly Cloudy
12:50 PM 50.0 °F - 42.8 °F 76% 29.53 in 6.2 mi SSW 10.4 mph - N/A Rain Light Rain Showers
1:20 PM 50.0 °F - 42.8 °F 76% 29.53 in 6.2 mi SSW 8.1 mph - N/A   Partly Cloudy
1:50 PM 50.0 °F - 42.8 °F 76% 29.53 in 5.6 mi South 5.8 mph - N/A   Partly Cloudy
2:20 PM 50.0 °F - 42.8 °F 76% 29.53 in 5.6 mi South 4.6 mph - N/A   Mostly Cloudy
2:50 PM 44.6 °F 39.2 °F 39.2 °F 81% 29.53 in 5.6 mi WSW 10.4 mph - N/A Rain , Thunderstorm Thunderstorms and Rain
3:20 PM 44.6 °F 40.7 °F 42.8 °F 93% 29.53 in 5.6 mi SSW 6.9 mph - N/A Rain , Thunderstorm Thunderstorms and Rain
3:50 PM 44.6 °F - 42.8 °F 93% 29.53 in 3.7 mi Variable 2.3 mph - N/A Rain Light Rain
4:20 PM 44.6 °F - 42.8 °F 93% 29.50 in 5.6 mi Variable 2.3 mph - N/A   Mostly Cloudy
4:50 PM 44.6 °F 43.1 °F 42.8 °F 93% 29.50 in 5.6 mi ESE 3.5 mph - N/A Rain Light Rain
5:20 PM 44.6 °F 40.7 °F 41.0 °F 87% 29.50 in 6.2 mi SW 6.9 mph - N/A   Scattered Clouds
5:50 PM 44.6 °F 42.2 °F 41.0 °F 87% 29.50 in 6.2 mi South 4.6 mph - N/A   Scattered Clouds
6:20 PM 44.6 °F - 41.0 °F 87% 29.50 in 6.2 mi Variable 1.2 mph - N/A   Partly Cloudy
6:50 PM 44.6 °F - 42.8 °F 93% 29.50 in 6.2 mi Variable 2.3 mph - N/A   Partly Cloudy
7:20 PM 44.6 °F - 42.8 °F 93% 29.50 in 6.2 mi Variable 1.2 mph - N/A   Partly Cloudy
7:50 PM 46.4 °F 43.5 °F 42.8 °F 87% 29.50 in 4.3 mi SW 5.8 mph - N/A Rain Light Rain
8:20 PM 46.4 °F 41.9 °F 42.8 °F 87% 29.50 in 6.2 mi SSW 9.2 mph - N/A   Partly Cloudy
8:50 PM 44.6 °F 40.7 °F 41.0 °F 87% 29.50 in 6.2 mi SSW 6.9 mph - N/A   Partly Cloudy
9:20 PM 42.8 °F 41.1 °F 41.0 °F 93% 29.50 in 6.2 mi SSW 3.5 mph - N/A   Partly Cloudy